Regional Weather Roundup
Issued by NWS

Home | Current Version | Previous Version | Graphics & Text | Print | Product List | Glossary On
Versions: 1 2 3 4 5 6 7 8 9 10 11 12 13 14 15 16 17 18 19 20 21 22 23 24 25 26 27 28 29 30 31 32 33 34 35 36 37 38 39 40 41 42 43 44 45 46 47 48 49 50
000
ASUS43 KLOT 020108
RWRIL

ILLINOIS REGIONAL WEATHER ROUNDUP
NATIONAL WEATHER SERVICE CHICAGO/ROMEOVILLE IL
800 PM CDT MON JUN 01 2015

NOTE: "FAIR" INDICATES FEW OR NO CLOUDS BELOW 12,000 FEET WITH NO
SIGNIFICANT WEATHER AND/OR OBSTRUCTIONS TO VISIBILITY.

* THESE STATIONS ARE NOT UNDER NWS QUALITY CONTROL. THEY ALSO MAY NOT
  REPORT WEATHER SUCH AS PRECIPITATION OR FOG.

ILZ001-002-007-009-015-016-024-020200-
NORTHWEST ILLINOIS

CITY           SKY/WX    TMP DP  RH WIND       PRES   REMARKS
MOLINE         CLOUDY    67  50  54 E7        30.14S
STERLING*      CLEAR     63  45  51 E9        30.17S
SAVANNA*       CLEAR     64  41  42 E6        30.16F
$$

ILZ003-004-008-010-011-017-018-020200-
NORTH CENTRAL ILLINOIS

CITY           SKY/WX    TMP DP  RH WIND       PRES   REMARKS
ROCKFORD       PTCLDY    60  38  43 E7        30.21R
FREEPORT*      CLEAR     61  42  50 E9        30.20S
ROCHELLE*      CLEAR     60  42  51 E9        30.20R
DE KALB*       CLEAR     55  41  60 E9        30.21R
PERU*          CLEAR     64  46  50 E10       30.17S
$$

ILZ005-006-012>014-019>023-020200-
NORTHEAST ILLINOIS

CITY           SKY/WX    TMP DP  RH WIND       PRES   REMARKS
CHICAGO-OHARE  PTCLDY    53  34  48 NE10      30.21S
CHICAGO-MIDWAY PTCLDY    55  34  45 N13       30.21R
AURORA         CLEAR     59  41  51 E9        30.20S
LANSING*       CLEAR     51  35  53 NE6       30.21S
JOLIET*        CLEAR     58  45  62 E9        30.19S
WAUKEGAN       CLEAR     50  34  54 N8        30.21S
DUPAGE AIRPORT CLEAR     55  36  48 E9        30.19F
KANKAKEE*      CLEAR     56  46  68 NE8       30.19S
WHEELING       CLEAR     52  33  48 NE9       30.23S
MORRIS*        CLEAR     60  45  57 NE7       30.17S
ROMEOVILLE*    CLEAR     56  40  54 E9        30.19S
NORTHERLY ISL    N/A     49  38  65 N10         N/A
$$

LMZ740>746-020200-
SOUTHERN LAKE MICHIGAN

STATION/POSITION SKY/WX   TEMP    WIND        PRES    VSBY  WAVE
                          AIR SEA DIR/SP/G                  HT/PER
                          (F)     (DEG/KT/KT) (MB)    (MI)  (FT/S)
SOUTHERN BUOY              42 38  350/ 10/ 12 1023.4R         1/ 3
HARRISON CRIB              49     350/ 12/ 14   N/A
BURNHAM HARBOR             49     350/  7/ 13   N/A
CALUMET HARBOR             51     350/  8/ 12   N/A
BURNS HARBOR                       40/ 10/ 13 1023.7R
MICHIGAN CITY              49      10/  9/ 10   N/A
MICHIGAN CITY 6N           48 54   20/  6/  8   N/A           2/ 4
ST. JOSEPH                 52 55   40/ 14/ 16   N/A           4/ 5
$$

ILZ025>027-034>036-040-047-049-050-058-095>099-020200-
WEST-CENTRAL ILLINOIS

CITY           SKY/WX    TMP DP  RH WIND       PRES   REMARKS
QUINCY         CLOUDY    63  53  70 E5        30.16R
GALESBURG*     CLOUDY    64  55  71 CALM      30.16S
MACOMB*        MOCLDY    65  55  70 SE3       30.18S
JACKSONVILLE*  PTCLDY    64  57  76 NE6       30.15S
PITTSFIELD*    CLOUDY    64  56  76 CALM      30.16S
$$

ILZ028>032-037-038-041>044-048-051>054-059>061-020200-
CENTRAL ILLINOIS

CITY           SKY/WX    TMP DP  RH WIND       PRES   REMARKS
PONTIAC        CLOUDY    64  55  73 NE9       30.18S
BLOOMINGTON    CLEAR     60  54  80 NE6       30.18S
DECATUR        MOCLDY    63  56  78 NE8       30.15R
PEORIA         CLEAR     65  54  67 SE6       30.16S
LACON*         CLEAR     63  51  64 SE5       30.16S
LINCOLN*       CLEAR     62  54  74 N7        30.15S
SPRINGFIELD    CLEAR     64  55  72 NE8       30.15S
TAYLORVILLE    MOCLDY    63  55  77 N10       30.14R
$$

ILZ033-039-045-046-055>057-062-063-020200-
EAST-CENTRAL ILLINOIS

CITY           SKY/WX    TMP DP  RH WIND       PRES   REMARKS
CHAMPAIGN      MOCLDY    64  55  72 NE8       30.15R
DANVILLE*      CLEAR     61  53  74 E3        30.13S
RANTOUL*       CLOUDY    65  55  71 NE6       30.16R
MATTOON        MOCLDY    62  54  74 CALM      30.13R
PARIS*         MOCLDY    63  55  75 NE8       30.15S
$$

ILZ079-100>102-020200-
SOUTHWEST ILLINOIS

CITY           SKY/WX    TMP DP  RH WIND       PRES   REMARKS
ALTON          CLOUDY    64  59  82 NE6       30.14R
BELLEVILLE     CLOUDY    64  58  81 N2        30.12R
CAHOKIA*       CLOUDY    65  55  70 N5        30.13R
SPARTA*        CLOUDY    61  57  87 CALM      30.13S
$$

ILZ064>066-069>071-074>076-080>082-084>086-088>090-092>094-020200-
SOUTH-CENTRAL ILLINOIS

CITY           SKY/WX    TMP DP  RH WIND       PRES   REMARKS
CARBONDALE     CLOUDY    61  55  81 CALM      30.12S
CAIRO*         CLOUDY    63  58  83 N5        30.11S
EFFINGHAM*     CLEAR     63  52  67 NE3       30.14S
MARION         CLOUDY    61  57  88 N3        30.12S
MT. VERNON     CLOUDY    61  52  72 NE3       30.13S
CENTRALIA*     CLOUDY    61  54  78 CALM      30.13S
SALEM*         CLOUDY    63  55  76 CALM      30.14R
$$

ILZ067-068-072-073-078-083-087-091-020200-
SOUTHEAST ILLINOIS

CITY           SKY/WX    TMP DP  RH WIND       PRES   REMARKS
LAWRENCEVILLE  CLOUDY    61  53  75 NE8       30.13S
FLORA*         MOCLDY    62  54  75 NE6       30.14R
FAIRFIELD*     CLOUDY    60  55  81 NE3       30.12S
HARRISBURG*    CLOUDY    61  55  81 N8        30.13S
ROBINSON*      CLOUDY    60  53  76 NE6       30.15R
CARMI*         CLOUDY    61  52  72 N6        30.11F
$$

ABBREVIATIONS USED IN REMARKS
   TC - TEMPERATURE IN CELSIUS
  WCI - WIND CHILL INDEX
   HX - HEAT INDEX
  VSB - VISIBILITY
$$




USA.gov is the U.S. government's official web portal to all federal, state and local government web resources and services.